Location: Ełk
(53.8214°N, 22.3622°E)
Time: 07:47:00
(UTC+01:00)

ISS - Pass Details

Date: 29 January 2019
Orbit: 403 x 411 km, 51.6° (Epoch: 17 February)

Event Time Altitude Azimuth Distance (km) Brightness Sun altitude
Rises 18:17:16 0° 256° (WSW) 2,335 1.6 -19.3°
Reaches altitude 10° 18:19:22 10° 252° (WSW) 1,476 0.1 -19.6°
Enters shadow 18:22:33 56° 180° (S) 494 -3.5 -20.0°
